Showing default

GALAXY 35, 54741

Orbit data source: Space-Track

GALAXY 35, 54741 is a payload satellite owned by Intelsat SA (US) (US) in GEO that was launched on Tue, 13 Dec 2022 UTC via an ARIANE 5ECA+ launch vehicle from the French Guiana (FRGUI). Payload-class satellites include a variety of spacecraft equipped with specific instruments for various scientific and technological missions. These include communications satellites like Starlink; space stations such as the ISS; scientific satellites like the Hubble; Earth observation satellites from companies like Planet Labs, Umbra, and HawkEye 360; GPS; miniature CubeSats for education and research; and military/defense satellites.

Loading next visibility...
Identifier
54741, 2022-170A
Orbit
GEO
Last TLE update
7 hours ago
Origin
Manufacturer
Maxar Space Sol
Mission
Operational Commercial Communications
Bus & Motor
SSL-1300, R-4D
Mass
3,150 kg wet, ~2,000 kg dry
Launch date (UTC)
2022-12-13 (3 years ago)
Launch vehicle
ARIANE 5ECA+
Launch site
French Guiana (FRGUI)
Object type
Payload
Rocket body
Debris
Shape & HBR
Box + 2 Pan, 12 m
Radar Cross Section
30.995 m², Large (>1 m²)

Expand to show TLE details & history

TLE from 7 hours ago
0 GALAXY 35
1 54741U 22170A   25182.87614241 -.00000157  00000-0  00000-0 0  9998
2 54741   0.0168  58.7335 0002012  34.2263  49.5029  1.00273050  9381
Epoch: 2025-07-01T21:01Z
TLE epoch observation values (Epoch: 2025-07-01T21:01:38.704Z)
Latitude
0.03089°
Longitude
-93.0849°
Altitude
35,780.193 km
Speed
3.075 km/s
True Right ascension
09h 29m 58s
True Declination
0° 01' 51"
Sunlit
Object was in daylight at epoch
Visualization orbit readout
Latitude
-0.01235°
Longitude
11.09738°
Altitude
35,793.376 km
Speed
3.074 km/s
Apparent Right ascension
16h 32m 57s
Apparent Declination
-6° 13' 36"
Sunlit
Object is in daylight
Visualization observer readout
Local Sidereal Time
15:38:35
Azimuth
161.624° S
Elevation
42.184°
Doppler factor
1
Orbital elements
Apogee altitude
35,795.794 km
Perigee altitude
35,778.827 km
Semi-major axis
42,165.448 km
Eccentricity
0.0002
Inclination
0.0168°
RAAN
58.7335°
Arg. of periapsis
34.2263°
True anomaly
Unknown
Mean anomaly
49.5029°
Eccentric anomaly
Unknown
Mean motion
0.25067 °/min
Orbital period
1,436.13 mins
BSTAR
0
Loading historical data...
54741 neighbors
Loading maneuver chart data...
Loading SW <> Apogee altitude chart data...
Loading historical data...
Loading historical data...
Loading historical data...
Loading historical data...
Loading historical data...
Loading historical data...
Loading historical data...
Other satellites on launch #170 in the year 2022 (2022-12-13 UTC)

GALAXY 35 Visibility forecast

Observer location: undefined°, undefined°

Span
Click to sort rows by Start time (UTC) header in descending order
Start Az.
Max El. time (UTC)
Max El. Az.
Max El.
End time (UTC)
End Az.
1440 mins2025-07-02 03:57:15.791Z161.631° S2025-07-02 20:57:15.791Z161.602° S33.897°2025-07-03 03:57:15.791Z161.629° S
|